sat.trackr.live / text

‹ back to catalog

ASCENT

NORAD 51287 · 2021-118E

PAYLOAD ACTIVE UNKNOWN

§ Identity

Operator
Country
US
Launch date
2021-12-07
Launch site
AFETR
Launch vehicle
Mass (kg)
RCS (m²)

External: N2YO · Heavens-Above · Gunter

§ Orbital elements

Epoch: 2026-05-24T14:43:31.437120Z

Period
1,422.62 min
Inclination
4.1139°
Eccentricity
0.0003558
Mean motion
1.01221923 rev/d
Perigee alt
35,507.4 km
Apogee alt
35,537.2 km
Semi-major
41,900.5 km
B*
0.0000e+0
RAAN
77.5410°
Arg perigee
112.0555°
Mean anomaly
247.7735°
Rev number
1,608

§ Raw data

ASCENT1 51287U 21118E   26144.61355830 -.00000040  00000+0  00000+0 0  99972 51287   4.1139  77.5410 0003558 112.0555 247.7735  1.01221923 16088

JSON: /api/v1/satellites/51287 · /tle

For live sub-satellite position, see the globe view (requires WebGL).

§ Visibility from observer

Set your observer location to see the next 7 days of passes ≥ 10°. The values pass through the URL so the page stays shareable.

No JS? Fill the form by hand. The geolocation button needs JavaScript.